Location: *
(37.9500°N, 27.3666°E)
Time: 06:29:23
(UTC+00:00)

Cosmos 614 Rocket - Pass Details

Date: 03 June 2022
Orbit: 732 x 764 km, 74.1° (Epoch: 03 July)

Event Time Altitude Azimuth Distance (km) Brightness Sun altitude
Rises 22:54:16 0° 343° (NNW) 3,225 8.1 -28.7°
Reaches altitude 10° 22:56:39 10° 344° (NNW) 2,299 7.2 -28.6°
Enters shadow 23:01:27 73° 21° (NNE) 800 4.1 -28.4°
